Location: Buckeye Ditch
(40.9104°N, 122.9517°W)
Time: 12:50:03
(UTC+00:00)

Tiros 1 despin weight - Pass Details

Date: 18 May 2025
Orbit: 563 x 601 km, 48.2° (Epoch: 22 June)

Event Time Altitude Azimuth Distance (km) Brightness Sun altitude
Rises 11:17:43 0° 233° (SW) 2,804 - -15.2°
Reaches altitude 10° 11:19:59 10° 232° (SW) 1,912 - -14.9°
Exits shadow 11:21:52 25° 228° (SW) 1,204 ? -14.6°
Maximum altitude 11:24:21 73° 148° (SSE) 623 ? -14.3°
Drops below altitude 10° 11:28:48 10° 64° (ENE) 1,939 ? -13.6°
Sets 11:31:06 0° 62° (ENE) 2,846 ? -13.3°
